SCP
0 0 0 0 0 0 0 0 0 0 0 0 0 0 0 0 0 0 0 0 0 1 1 1 1 1 2 2 1 1 1 1 1 1 1 2 2 3 3 2 2 1 1 1
0 0 0 0 0 0 0 0 0 0 0 0 0 0 0 0 0 0 0 0 0 0 0 1 1 1 2 2 2 1 1 1 1 1 1 1 2 2 3 2 2 2 1 1
0 0 0 0 0 0 0 0 0 0 0 0 0 0 0 0 0 0 0 0 0 0 0 1 1 1 1 2 2 2 1 1 1 1 1 1 1 2 2 3 2 2 2 2
0 0 0 0 0 0 0 0 0 0 0 0 0 0 0 0 0 0 0 0 0 0 0 0 1 1 1 2 3 3 2 1 1 1 1 1 1 1 1 2 2 2 2 2
0 0 0 0 0 0 0 0 0 0 0 0 0 0 0 0 0 0 0 0 0 0 0 0 0 1 1 2 3 4 3 2 2 2 1 1 1 0 1 1 1 1 1 2
0 0 0 0 0 0 0 0 0 0 0 0 0 0 0 0 0 0 0 0 0 0 0 0 0 1 1 1 2 4 4 3 2 2 1 1 1 0 0 0 0 1 1 1
0 0 0 0 0 0 0 0 0 0 0 0 0 0 0 0 0 0 0 0 0 0 0 0 0 0 1 1 2 3 4 3 3 2 2 1 1 1 0 0 0 0 0 0
0 0 0 0 0 0 0 0 0 0 0 0 0 0 0 0 0 0 0 0 0 0 0 0 0 0 1 1 1 3 4 3 3 2 2 1 1 1 1 0 0 0 0 0
0 0 0 0 0 0 0 0 0 0 0 0 0 0 0 0 0 0 0 0 0 0 0 0 0 0 1 1 1 2 3 3 3 2 2 2 1 1 1 0 0 0 0 0
0 0 0 0 0 0 0 0 0 0 0 0 0 0 0 0 0 0 0 0 0 0 0 0 0 0 0 1 1 2 3 3 3 3 2 1 1 1 1 1 0 0 0 0
0 0 0 0 0 0 0 0 0 0 0 0 0 0 0 0 0 0 0 0 0 0 0 0 0 0 0 1 1 2 2 3 3 2 2 1 1 1 0 0 0 0 0 0
0 0 0 0 0 0 0 0 0 0 0 0 0 0 0 0 0 0 0 0 0 0 0 0 0 0 0 0 1 1 1 2 2 2 1 1 1 0 0 0 0 0 0 0
0 0 0 0 0 0 0 0 0 0 0 0 0 0 0 0 0 0 0 0 0 0 0 0 0 0 0 0 0 0 0 0 1 1 1 1 1 0 0 0 0 0 0 0
0 0 0 0 0 0 0 0 0 0 0 0 0 0 0 0 0 0 0 0 0 0 0 0 0 0 0 0 0 0 0 0 0 0 0 0 0 0 0 0 0 0 0 0
0 0 0 0 0 0 0 0 0 0 0 0 0 0 0 0 0 0 0 0 0 0 0 0 0 0 0 0 0 0 0 0 0 0 0 0 0 0 0 0 0 0 0 0
0 0 0 0 0 0 0 0 0 0 0 0 0 0 0 0 0 0 0 0 0 0 0 0 0 0 0 0 0 0 0 0 0 0 0 0 0 0 0 0 0 0 0 0
0 0 0 0 0 0 0 0 0 0 0 0 0 0 0 0 0 0 0 0 0 0 0 0 0 0 0 0 0 0 0 0 0 0 0 0 0 0 0 0 0 0 0 0
0 0 0 0 0 0 0 0 0 0 0 0 0 0 0 0 0 0 0 0 0 0 0 0 0 0 0 0 0 0 0 0 0 0 0 0 0 0 0 0 0 0 0 0
0 0 0 0 0 0 0 0 0 0 0 0 0 0 0 0 0 0 0 0 0 0 0 0 0 0 0 0 0 0 0 0 0 0 0 0 0 0 0 0 0 0 0 0
0 0 0 0 0 0 0 0 0 0 0 0 0 0 0 0 0 0 0 0 0 0 0 0 0 0 0 0 0 0 0 0 0 0 0 0 0 0 0 0 0 0 0 0
0 0 0 0 0 0 0 0 0 0 0 0 0 0 0 0 0 0 0 0 0 0 0 0 0 0 0 0 0 0 0 0 0 0 0 0 0 0 0 0 0 0 0 0
0 0 0 0 0 0 0 0 0 0 0 0 0 0 0 0 0 0 0 0 0 0 0 0 0 0 0 0 0 0 0 0 0 0 0 0 0 0 0 0 0 0 0 0
0 0 0 0 0 0 0 0 0 0 0 0 0 0 0 0 0 0 0 0 0 0 0 0 0 0 0 0 0 0 0 0 0 0 0 0 0 0 0 0 0 0 0 0
0 0 0 0 0 0 0 0 0 0 0 0 0 0 0 0 0 0 0 0 0 0 0 0 0 0 0 0 0 0 0 0 0 0 0 0 0 0 0 0 0 0 0 0
0 0 0 0 0 0 0 0 0 0 0 0 0 0 0 0 0 0 0 0 0 0 0 0 0 0 0 0 0 0 0 0 0 0 0 0 0 0 0 0 0 0 0 0
0 0 0 0 0 0 0 0 0 0 0 0 0 0 0 0 0 0 0 0 0 0 0 0 0 0 0 0 0 0 0 0 0 0 0 0 0 0 0 0 0 0 0 0
Wind_Speed
2 3 4 6 5 3 3 3 3 3 1 1 4 7 7 4 4 5 5 5 5 6 4 3 3 3 3 3 3 3 4 3 3 2 2 1 1 0 1 1 1 1 1 1
3 3 4 2 3 2 2 3 3 2 1 1 3 7 7 5 6 6 8 8 7 5 3 3 3 3 4 4 4 4 3 3 3 2 2 1 1 1 1 0 1 1 1 1
4 3 2 3 3 3 3 5 4 3 2 2 2 7 4 3 3 4 5 6 6 7 7 5 4 4 4 4 5 4 4 4 3 2 2 2 2 2 1 1 1 1 0 0
2 3 1 2 2 3 4 3 3 2 1 3 0 5 6 3 4 5 6 5 6 6 6 5 5 5 5 5 4 4 4 3 3 3 3 4 2 1 1 1 0 1 1 1
2 1 2 2 3 4 3 1 1 1 2 2 1 3 9 2 5 7 7 6 6 5 5 6 6 6 4 4 4 4 4 3 3 3 3 3 2 1 1 1 1 1 1 1
2 1 1 2 1 3 3 3 3 2 1 4 5 5 8 4 7 6 4 4 4 4 4 4 3 3 3 3 3 3 4 3 3 3 3 3 3 3 2 1 1 0 1 1
3 2 1 1 2 1 3 4 2 3 1 6 3 5 10 6 5 5 5 5 4 3 4 4 4 4 4 3 3 3 4 3 3 3 3 3 3 3 3 2 1 0 0 1
2 3 2 1 3 4 3 5 6 5 5 4 2 7 9 4 3 3 3 3 2 3 3 3 4 4 4 4 3 3 4 3 3 3 2 2 2 2 2 2 1 1 1 1
4 4 2 1 0 5 4 3 3 4 1 3 6 7 8 3 3 3 2 0 2 2 2 3 3 3 4 4 3 4 4 3 3 3 3 2 2 2 2 1 1 1 1 1
3 2 2 2 1 2 2 5 4 4 3 4 5 5 5 5 5 3 2 2 2 1 1 2 2 2 2 2 2 2 3 3 2 3 2 2 2 2 2 1 1 1 1 0
2 2 2 1 3 4 2 2 3 3 3 4 4 7 4 4 3 3 4 3 2 2 2 1 1 2 2 2 2 3 2 2 2 2 2 2 1 1 1 1 1 1 1 1
2 3 2 4 2 1 2 4 5 4 4 3 3 9 3 2 2 2 3 2 1 1 1 1 1 2 2 2 2 2 2 2 2 2 2 2 2 2 1 1 1 1 1 1
4 4 1 3 2 1 2 3 3 3 3 4 5 8 2 2 2 2 2 2 1 1 1 1 1 1 1 1 1 1 2 2 1 2 2 2 2 1 1 1 1 1 1 0
2 3 5 7 5 4 4 4 4 4 4 5 9 8 5 4 4 3 3 2 1 1 1 1 1 1 1 1 1 1 1 1 1 2 1 1 1 1 1 1 1 1 1 1
2 2 3 4 3 2 4 6 7 8 8 8 8 9 10 6 5 3 2 2 1 1 1 1 1 1 1 1 1 1 1 1 2 2 1 1 1 1 1 1 1 1 1 1
2 2 1 2 2 3 5 7 9 10 8 9 8 12 7 3 2 3 3 3 3 3 3 2 2 2 2 2 2 1 1 1 1 2 1 1 1 1 1 1 0 0 0 0
2 3 2 3 3 2 8 9 10 7 7 8 11 11 4 3 4 5 5 4 5 4 3 3 3 3 3 3 3 2 2 1 2 2 1 1 1 0 0 0 1 0 0 0
5 4 2 1 1 7 8 2 6 7 7 8 7 6 5 6 5 4 4 5 5 4 4 4 3 3 2 2 2 2 2 2 2 1 1 1 1 1 0 1 0 0 0 0
4 6 4 3 3 9 7 3 4 5 7 7 9 8 5 2 2 3 3 4 5 5 4 4 3 3 2 2 2 2 2 2 2 1 1 1 1 1 1 1 1 0 0 0
2 3 4 4 3 8 6 1 2 3 6 4 6 6 4 2 1 5 2 2 3 2 2 2 1 2 2 2 3 3 2 2 2 2 2 2 2 2 2 1 1 0 0 1
3 2 4 5 5 10 5 1 4 4 7 2 3 4 4 5 6 4 2 2 2 1 1 1 2 2 2 2 3 3 2 3 2 1 1 1 1 2 2 1 1 1 1 0
7 6 6 5 5 10 2 5 6 6 1 1 2 2 3 4 4 3 3 3 2 1 1 1 1 1 1 2 3 3 3 2 1 1 1 1 1 1 1 1 1 1 1 1
7 8 6 9 8 3 4 5 3 1 2 2 2 2 3 3 4 3 3 3 2 2 1 1 1 1 1 1 3 3 2 1 1 1 1 1 1 1 1 2 2 1 1 1
4 2 3 5 7 5 4 4 3 2 3 2 2 2 2 3 3 3 3 2 2 2 1 1 1 1 1 1 1 2 2 1 2 1 1 1 1 1 1 1 2 2 2 2
4 5 4 5 6 4 4 4 4 3 2 2 2 2 2 2 3 3 3 2 2 2 1 1 2 2 2 1 1 1 1 2 2 1 2 1 1 2 2 2 2 2 3 3
5 7 7 7 5 5 4 3 2 2 3 3 2 2 2 2 3 2 2 2 1 1 1 1 1 2 2 1 1 1 1 2 2 2 2 2 1 2 2 1 1 3 4 5
Wind_Direction
43 87 201 212 203 203 166 176 215 240 266 207 241 263 270 244 231 228 226 223 222 229 231 206 186 170 154 140 143 156 143 140 129 118 120 124 134 124 93 81 71 70 83 101
59 246 235 182 162 158 200 217 242 287 330 217 266 275 274 243 231 224 221 223 223 227 225 203 185 172 170 167 165 168 161 155 151 148 146 138 126 119 119 59 54 45 46 52
184 239 181 150 153 175 232 217 222 237 329 352 319 293 271 261 246 243 233 226 222 217 216 205 193 191 178 178 178 177 174 163 155 138 110 95 81 67 58 24 6 344 342 71
230 268 157 143 191 174 239 233 212 213 188 278 160 279 281 260 274 255 244 232 225 224 216 207 194 190 193 195 179 170 165 159 153 144 140 140 141 156 194 199 204 351 9 32
244 220 170 203 224 175 196 90 144 208 187 272 237 233 281 303 266 258 244 235 230 223 212 205 199 193 190 180 168 166 155 145 143 138 147 145 132 140 120 100 80 34 7 23
265 295 207 202 201 162 149 76 44 38 84 254 224 202 274 242 237 259 246 238 234 220 212 201 188 168 161 149 152 153 152 150 143 136 136 141 141 135 126 121 121 25 347 355
324 308 299 141 91 51 112 103 37 348 307 249 203 207 250 250 249 251 249 244 239 218 199 185 174 170 164 156 155 155 152 152 144 138 136 142 143 143 153 166 171 176 316 304
189 271 240 210 172 173 193 158 166 199 227 271 228 231 251 262 281 278 261 237 217 211 200 191 185 177 173 167 160 156 161 160 152 147 148 139 140 146 155 168 173 194 233 276
181 244 326 341 18 142 150 193 162 135 178 262 260 275 293 279 297 307 301 218 221 222 201 187 173 168 172 172 175 169 165 164 163 160 151 143 143 151 158 170 164 192 242 267
160 231 291 290 63 21 161 151 125 147 180 249 276 264 258 276 280 303 297 257 246 218 185 169 164 162 167 169 165 149 154 165 164 156 159 153 157 167 169 166 172 190 219 239
129 152 315 5 192 191 150 162 155 156 174 185 256 266 237 245 258 259 260 255 240 211 196 179 159 147 135 133 143 144 144 141 143 150 156 146 157 156 152 166 183 191 211 225
163 136 232 253 250 231 205 197 166 175 219 200 219 266 293 256 276 257 265 270 238 187 170 166 142 123 123 135 139 144 150 155 163 160 155 154 149 145 146 164 190 191 205 226
153 135 84 337 326 327 238 215 184 141 141 179 206 262 316 4 340 317 295 280 218 155 136 120 129 139 148 156 154 154 157 162 154 144 145 145 152 158 170 184 181 161 161 192
137 153 182 207 225 192 221 215 182 163 198 221 228 251 280 290 297 313 319 292 218 183 172 153 164 182 165 161 163 168 173 163 149 137 143 161 177 184 193 183 167 165 161 168
112 193 224 250 266 223 224 223 203 206 211 218 241 241 251 246 250 273 290 292 279 250 215 203 203 217 194 168 171 176 185 173 157 144 150 193 187 153 150 149 158 151 155 201
109 162 169 273 275 257 253 239 221 225 228 236 255 262 253 248 231 253 252 236 236 247 240 230 214 203 203 199 202 196 199 195 164 158 176 181 128 116 145 159 149 104 87 341
156 143 146 258 306 342 264 228 208 212 211 201 228 244 238 236 232 234 234 227 230 237 242 235 229 219 213 208 199 200 208 183 163 165 168 156 136 119 126 138 107 96 68 94
161 144 147 177 64 241 250 215 200 209 232 219 234 250 234 234 248 247 233 227 235 235 233 236 232 228 218 207 198 195 180 166 164 172 178 171 153 151 136 123 125 71 97 255
177 152 145 153 226 274 286 239 182 191 257 225 226 244 252 265 340 292 247 226 231 231 230 228 222 213 195 196 189 165 162 160 167 191 198 197 185 188 188 198 230 241 212 289
100 129 140 156 196 243 254 220 172 117 282 246 207 230 237 143 238 268 278 245 253 258 248 229 195 172 182 200 170 158 173 176 203 215 217 206 193 195 210 215 228 240 254 267
140 143 177 187 225 261 256 200 127 166 247 255 193 208 192 198 222 265 308 289 271 275 273 192 166 180 200 188 162 170 184 212 226 217 203 203 201 202 210 214 219 199 229 276
175 175 190 171 210 250 198 143 185 217 263 207 199 198 203 237 269 287 293 295 300 306 310 167 166 208 205 174 164 184 218 229 195 173 187 219 224 223 206 187 214 209 194 205
198 191 186 195 216 248 184 201 226 195 219 235 216 219 210 250 270 287 292 290 288 277 260 204 171 199 229 191 176 194 232 194 164 167 207 233 250 250 224 206 212 215 201 207
245 188 181 247 261 255 247 256 269 240 239 256 244 230 206 238 261 276 279 282 282 275 250 201 164 194 246 232 210 206 208 180 165 198 226 233 230 251 244 232 220 215 216 220
211 171 195 248 268 294 271 240 246 254 255 261 270 239 228 234 262 258 263 265 266 280 283 212 200 221 248 252 253 234 204 178 185 214 229 236 236 234 242 243 233 231 227 222
194 183 187 224 219 200 237 238 214 219 245 241 244 286 277 227 243 259 267 267 259 257 265 251 246 242 250 247 262 264 232 197 191 220 231 227 233 234 235 242 279 270 259 262